HEU weather

El Universal Heliport
Cuauhtémoc, Distrito Federal, Mexico

Public forecast

Using degrees Celsius for public forecast. Weather courtesy of forecast.io.

METAR (pilot weather report)

Closest report is Licenciado Benito Juarez International Airport, 4.4 nm (8.1 km) E. Retrieved 2019/08/21 02:28 UTC (19 minutes ago):

MMMX 210228Z 04010KT 10SM FEW020 SCT080 SCT200 18/09 A3032 NOSIG RMK 8/462 HZY

TAF (pilot weather forecast)

Forecast is more than 12 hours old.

Closest forecast is Licenciado Benito Juarez International Airport, 4.4 nm (8.1 km) E. Retrieved 2019/08/20 00:00 UTC (1 day ago):

TAF MMMX 202253Z 2100/2206 09010KT P6SM BKN020 OVC080 TX25/2121Z TN15/2112Z TEMPO 2100/2104 5SM -RA BKN020CB FM210400 06010KT 5SM HZ BKN020 BKN080 FM210800 03005KT P6SM SCT020 BKN250 FM211800 04010KT P6SM SCT020 BKN090 BKN250 BECMG 2120/2121 BKN020CB TEMPO 2123/2203 4SM TSRA FM220300 04010KT 5SM -TSRA SCT020CB BKN040 BKN090 BKN250